Regional Weather Roundup
Issued by NWS

Home | Current Version | Previous Version | Graphics & Text | Print | Product List | Glossary On
Versions: 1 2 3 4 5 6 7 8 9 10 11 12 13 14 15 16 17 18 19 20 21 22 23 24 25 26 27 28
000
ASUS45 KTFX 210110
RWRMT
MONTANA REGIONAL WEATHER ROUNDUP
NATIONAL WEATHER SERVICE GREAT FALLS MT
700 PM MDT SUN AUG 20 2017

NOTE: "FAIR" INDICATES FEW OR NO CLOUDS BELOW 12000 FEET WITH NO
SIGNIFICANT WEATHER AND/OR OBSTRUCTIONS TO VISIBILITY.

MTZ001>007-043-210200-
WEST OF THE DIVIDE

CITY           SKY/WX    TMP DP  RH WIND       PRES   REMARKS
KALISPELL      PTSUNNY   79  37  22 W7        29.99F
MISSOULA       PTSUNNY   80  34  19 N9        30.00S
BUTTE          CLOUDY    74  26  16 NW12      30.10S
MULLAN PASS    PTSUNNY   61  36  39 NW7       30.19S
ANACONDA         N/A     66  34  30 N6        30.09R
DEER LODGE       N/A     70  34  26 NW12G18   30.09S
EUREKA           N/A     77  37  24 MISG      29.98S
HAMILTON         N/A     73  45  35 N3        30.03S
LIBBY            N/A     79  37  22 W8        29.98S
PLAINS           N/A     78  41  26 W3        30.01
RONAN            N/A     78  39  24 SW1       30.06
$$

MTZ008-052>055-210200-
SOUTHWEST MONTANA

CITY           SKY/WX    TMP DP  RH WIND       PRES   REMARKS
BOZEMAN        CLOUDY    78  27  15 CALM      30.03S
DILLON         CLOUDY    78  28  16 NE6       30.04S
W YELLOWSTONE  CLOUDY    72  32  23 SW10G18   30.14S
ENNIS          CLOUDY    77  21  12 NE6       30.10F
THREE FORKS      N/A     77  34  21 CALM      30.01S
$$

MTZ009-010-012-014-046-048-049-054-210200-
EAST SLOPES AND CENTRAL MONTANA

CITY           SKY/WX    TMP DP  RH WIND       PRES   REMARKS
CUT BANK       CLOUDY    72  32  23 W9        30.00S
GREAT FALLS    MOSUNNY   77  24  14 VRB3      29.99S
MALMSTROM AFB  MOSUNNY   76  24  14 CALM      29.98S
HELENA         CLOUDY    79  24  13 NW12      30.03R
AUGUSTA        PTSUNNY   70  28  21 NW12      30.04S
BOWMANS CRNR     N/A     71  23  16 N12       30.02R
CHOTEAU          N/A     72  32  23 NW9       30.04R
FAIRFIELD      PTSUNNY   72  26  17 NW13      30.01R
POWER            N/A     73  27  18 NW16      30.00R
RAYNESFORD       N/A     73  22  14 W3        30.02R
ULM              N/A     76  25  14 NE6       29.99R
$$

MTZ011-013-016-021-045-047-050-051-210200-
NORTH CENTRAL MONTANA

CITY           SKY/WX    TMP DP  RH WIND       PRES   REMARKS
HAVRE          MOSUNNY   77  27  15 NW8       29.94S
LEWISTOWN      MOSUNNY   74  30  19 N10       30.02S
N BAR RANCH      N/A     72  32  23 N12G17    30.06R
CHINOOK          N/A     75  30  19 W9        29.93S
DENTON           N/A     73  29  19 N6        29.96F
GEYSER         PTSUNNY   74  23  15 NW5       30.01S
GRASS RANGE      N/A     75  32  20 N12       29.98R
JUDITH GAP       N/A     70  27  20 N14       30.04S
WINIFRED         N/A     74  29  19 N14       29.99F
$$

MTZ017>020-022>027-061-062-210200-
NORTHEAST MONTANA

CITY           SKY/WX    TMP DP  RH WIND       PRES   REMARKS
GLASGOW        CLOUDY    80  37  21 W8        29.88S
JORDAN           N/A     81  37  20 CALM      29.91S
SIDNEY         MOCLDY    70  46  42 SE6       29.95S
WOLF POINT     CLOUDY    78  40  25 SE5       29.90F
MALTA          SUNNY     79  32  18 NW14G21   29.91R
PLENTYWOOD       N/A     75  36  23 SE10      29.94F
POPLAR           N/A     77  39  25 SE8       29.91F
$$

MTZ028>42-056>058-210200-
SOUTHCENTRAL AND SOUTHEAST MONTANA

CITY           SKY/WX    TMP DP  RH WIND       PRES   REMARKS
BAKER          CLEAR     74  42  31 E22G33    29.96S
BILLINGS       CLOUDY    81  34  18 N6        29.96R
LIVINGSTON     CLOUDY    75  28  17 NW6       30.03R
MILES CITY     PTCLDY    84  40  21 NE7       29.87S
BIG TIMBER     SUNNY     75  21  13 NW12      30.03R
HARLOWTON        N/A     74  26  17 MISG      30.03R
LAUREL           N/A     79  42  26 CALM      29.96S
$$

REGIONAL REPORTS...DAKOTAS

CITY           SKY/WX    TMP DP  RH WIND       PRES   REMARKS
WILLISTON      MOCLDY    75  44  33 SE8       29.96S
MINOT          CLEAR     74  41  30 SE6       29.98S
DICKINSON      PTCLDY    66  45  46 SE13      30.00F
BEACH            N/A     70  39  32 SE14      30.00F
CROSBY           N/A     72  34  25 SE7       29.97R
TIOGA            N/A     70  41  35 S12       30.00S
BISMARCK       CLOUDY    67  53  61 SW3       30.03F
GRAND FORKS    PTCLDY    72  51  47 W3        29.98R
FARGO          CLEAR     70  50  49 SW5       30.00S
BUFFALO SD       N/A     75  43  31 E23       29.90F
RAPID CITY     CLEAR     78  54  43 SE12      29.98F
$$

REGIONAL REPORTS...WYOMING/IDAHO/WASHINGTON

CITY           SKY/WX    TMP DP  RH WIND       PRES   REMARKS
GILLETTE       CLEAR     86  32  14 N14       29.93R
SHERIDAN       SUNNY     81  42  25 NW9       29.97R
BUFFALO WY     SUNNY     79  37  22 NW17G23   30.02R
CODY           SUNNY     73  41  31 N12       30.06R
YELLOWSTONE LA   N/A     66  29  24 W5        30.24S
IDAHO FALLS    SUNNY     82  37  20 S13       30.01F
SALMON         MOSUNNY   78  40  25 CALM      29.98F
BOISE          PTSUNNY   83  34  17 NW10      29.96F
SPOKANE        PTSUNNY   78  36  21 SW13      30.02F
$$

REGIONAL REPORTS...ALBERTA

CITY           SKY/WX    TMP DP  RH WIND       PRES   REMARKS
EDMONTON       PTSUNNY   61  48  63 W10       29.96S
CALGARY        CLOUDY    64  39  39 NE7       30.01R
LETHBRIDGE     CLOUDY    73  34  23 NW9G18    29.95S
MEDICINE HAT   PTSUNNY   73  32  21 NW8       29.93R
$$

REGIONAL REPORTS...SASKATCHEWAN

CITY           SKY/WX    TMP DP  RH WIND       PRES   REMARKS
SWIFT CURRENT  MOSUNNY   72  34  25 W14G20    29.87R
REGINA         CLOUDY    68  34  28 E10       29.92F
SASKATOON      PTSUNNY   66  39  37 NW8       29.93R
$$




USA.gov is the U.S. government's official web portal to all federal, state and local government web resources and services.